RV1CJ-14 Weather Reports


time (UTC)temp
C
wind
direction
speed
KPH
gust
KPH
rain 1hr
cm
rain 24hr
cm
rain mn
cm
humidity
%
barometer
mb
20260503232003 10 0 0.0 0.0 0.00 0.00 0.00 78 1004.6
20260503231003 10 0 0.0 0.0 0.00 0.00 0.00 78 1004.6
20260503230003 10 0 0.0 0.0 0.00 0.00 0.00 78 1004.5
20260503225003 10 0 0.0 0.0 0.00 0.00 0.00 78 1004.7
20260503224003 10 0 0.0 0.0 0.00 0.00 0.00 79 1004.8
20260503223003 10 0 0.0 0.0 0.00 0.00 0.00 79 1004.7
20260503222003 10 0 0.0 0.0 0.00 0.00 0.00 79 1004.6
20260503221003 10 0 0.0 0.0 0.00 0.00 0.00 79 1004.4
20260503220003 10 0 0.0 0.0 0.00 0.00 0.00 79 1004.5
20260503215003 10 0 0.0 0.0 0.00 0.00 0.00 79 1004.6
20260503214003 10 0 0.0 0.0 0.00 0.00 0.00 79 1004.7
20260503213003 10 0 0.0 0.0 0.00 0.00 0.00 79 1004.7
20260503212003 10 0 0.0 0.0 0.00 0.00 0.00 79 1004.6
20260503211003 10 0 0.0 0.0 0.00 0.00 0.00 79 1004.7
20260503210004 10 0 0.0 0.0 0.00 0.00 0.00 79 1004.8
20260503205003 10 0 0.0 0.0 0.00 0.00 0.00 79 1004.8
20260503204003 10 0 0.0 0.0 0.00 0.00 0.00 79 1005.0
20260503203003 10 0 0.0 0.0 0.00 0.00 0.00 79 1005.0
20260503202003 10 0 0.0 0.0 0.00 0.00 0.00 79 1005.0
20260503201003 10 0 0.0 0.0 0.00 0.00 0.00 79 1005.1
20260503200003 10 0 0.0 0.0 0.00 0.00 0.00 78 1005.0
20260503195003 10 0 0.0 0.0 0.00 0.00 0.00 78 1004.9
20260503194003 10 0 0.0 0.0 0.00 0.00 0.00 78 1005.1
20260503193003 10 0 0.0 0.0 0.00 0.00 0.00 77 1005.1
20260503192003 10 0 0.0 0.0 0.00 0.00 0.00 77 1005.1
20260503191003 10 0 0.0 0.0 0.00 0.00 0.00 76 1005.1
20260503190004 10 0 0.0 0.0 0.00 0.00 0.00 76 1005.1
20260503185003 11 0 0.0 0.0 0.00 0.00 0.00 76 1004.8
20260503184003 11 0 0.0 0.0 0.00 0.00 0.00 76 1004.8
20260503183003 11 0 0.0 0.0 0.00 0.00 0.00 75 1004.8
20260503182004 11 0 0.0 0.0 0.00 0.00 0.00 75 1005.0
20260503181004 11 0 0.0 0.0 0.00 0.00 0.00 74 1005.0
20260503180004 11 0 0.0 0.0 0.00 0.00 0.00 74 1004.9
20260503175003 12 0 0.0 0.0 0.00 0.00 0.00 74 1004.8
20260503174003 12 0 0.0 0.0 0.00 0.00 0.00 73 1004.7
20260503173003 12 0 0.0 0.0 0.00 0.00 0.00 73 1004.7
20260503172003 12 0 0.0 0.0 0.00 0.00 0.00 73 1004.6
20260503171003 12 0 0.0 0.0 0.00 0.00 0.00 72 1004.6
20260503151003 13 340 0.0 3.2 0.00 0.00 0.00 70 1004.7
20260503131003 11 340 1.6 3.2 0.00 0.00 0.00 78 1004.5
20260503081003 17 331 3.2 6.4 0.00 0.00 0.00 54 1002.5
20260503072003 18 164 1.6 11.3 0.00 0.00 0.00 52 1002.1
20260503071003 18 167 1.6 9.7 0.00 0.00 0.00 53 1002.2
20260503055003 15 0 0.0 0.0 0.00 0.00 0.00 61 1003.1
20260503054003 14 0 0.0 0.0 0.00 0.00 0.00 62 1003.1
20260503053003 14 0 0.0 0.0 0.00 0.00 0.00 63 1003.0
20260503052003 13 0 0.0 0.0 0.00 0.00 0.00 63 1003.1
20260503051003 13 0 0.0 0.0 0.00 0.00 0.00 65 1003.2
20260503050003 13 0 0.0 0.0 0.00 0.00 0.00 66 1003.3
20260503045003 12 0 0.0 0.0 0.00 0.00 0.00 67 1003.3
20260503044003 12 0 0.0 0.0 0.00 0.00 0.00 67 1003.3
20260503043003 12 0 0.0 0.0 0.00 0.00 0.00 68 1003.3
20260503042003 11 0 0.0 0.0 0.00 0.00 0.00 68 1003.3
20260503041003 11 0 0.0 0.0 0.00 0.00 0.00 69 1003.3
20260503040003 11 0 0.0 0.0 0.00 0.00 0.00 69 1003.5
20260503035003 11 0 0.0 0.0 0.00 0.00 0.00 70 1003.4
20260503034004 10 0 0.0 0.0 0.00 0.00 0.00 70 1003.5
20260503033003 10 0 0.0 0.0 0.00 0.00 0.00 70 1003.6
20260503032003 10 0 0.0 0.0 0.00 0.00 0.00 70 1003.5
20260503031003 10 0 0.0 0.0 0.00 0.00 0.00 70 1003.5
20260503030004 10 0 0.0 0.0 0.00 0.00 0.00 71 1003.6
20260503025003 10 0 0.0 0.0 0.00 0.00 0.00 71 1003.7
20260503024003 10 0 0.0 0.0 0.00 0.00 0.00 70 1003.8
20260503023004 10 0 0.0 0.0 0.00 0.00 0.00 70 1003.9
20260503022003 10 0 0.0 0.0 0.00 0.00 0.00 70 1004.0
20260503021003 10 0 0.0 0.0 0.00 0.00 0.00 70 1004.0
20260503020003 10 0 0.0 0.0 0.00 0.00 0.00 69 1004.0
20260503015003 10 0 0.0 0.0 0.00 0.00 0.00 69 1004.0
20260503014003 10 0 0.0 0.0 0.00 0.00 0.00 69 1004.1
20260503013003 11 0 0.0 0.0 0.00 0.00 0.00 68 1004.2
20260503012003 11 0 0.0 0.0 0.00 0.00 0.00 68 1004.1
20260503011004 11 0 0.0 0.0 0.00 0.00 0.00 67 1004.2
20260503010004 11 0 0.0 0.0 0.00 0.00 0.00 67 1004.2
20260503005003 11 0 0.0 0.0 0.00 0.00 0.00 67 1004.3
20260503004003 11 0 0.0 0.0 0.00 0.00 0.00 67 1004.4
20260503003003 11 0 0.0 0.0 0.00 0.00 0.00 67 1004.4
20260503002003 11 0 0.0 0.0 0.00 0.00 0.00 69 1004.6
20260503001003 11 338 0.0 1.6 0.00 0.00 0.00 70 1004.6
20260503000003 10 0 0.0 0.0 0.00 0.00 0.00 74 1004.6
20260502235003 10 0 0.0 0.0 0.00 0.00 0.00 75 1004.6
20260502234003 10 0 0.0 0.0 0.00 0.00 0.00 74 1004.7
20260502233003 10 0 0.0 0.0 0.00 0.00 0.00 73 1004.8